Location: Camp Crooked Creek
(37.9149°N, 85.6607°W)
Time: 14:27:15
(UTC-05:00)

Amateur Radio Satellites - All Passes

Search period start: 20 December 2014 13:57
Search period end: 21 December 2014 13:57
Location: Camp Crooked Creek, 37.9149°N, 85.6607°W

Satellite Date Start Highest point End Downlink Frequencies (MHz)
Time Altitude Azimuth
AO-7 20 Dec 14:00:44 14:05:15 16° 50° (NE) 14:09:47 29.400- 29.500
BEESAT 3 20 Dec 14:04:49 14:08:53 68° 302° (WNW) 14:13:02 437.485
AIST 2 20 Dec 14:10:07 14:14:13 53° 116° (ESE) 14:18:24 435.215
TISAT 1 20 Dec 14:21:09 14:22:39 12° 296° (WNW) 14:24:09 437.305
SPROUT 20 Dec 14:23:28 14:25:10 12° 296° (WNW) 14:26:52 437.525
SRMSAT 20 Dec 14:23:30 14:25:09 11° 172° (S) 14:26:46 437.500
BEESAT 2 20 Dec 14:45:05 14:48:43 29° 308° (NW) 14:52:24 435.950
AUBIESAT-1 20 Dec 14:47:48 14:52:03 57° 105° (ESE) 14:55:53 437.475
STARS 20 Dec 14:50:45 14:54:22 24° 96° (E) 14:57:57 437.465
KKS-1 20 Dec 14:53:29 14:57:41 39° 99° (E) 15:01:52 437.445
SWISSCUBE 20 Dec 14:58:34 15:02:51 34° 290° (WNW) 15:07:06 437.505
ITUPSAT 1 20 Dec 14:58:52 15:03:15 37° 289° (WNW) 15:07:36 437.325
RS-15 20 Dec 15:05:40 15:14:23 27° 327° (NNW) 15:23:16 29.354- 29.394
JUGNU 20 Dec 15:07:58 15:10:19 12° 185° (S) 15:12:40 437.505
PCSat 20 Dec 15:12:31 15:17:30 37° 305° (NW) 15:22:31 145.827
M-CUBED/EXP-1 PRIME 20 Dec 15:13:16 15:17:35 62° 290° (WNW) 15:21:29 437.505
Gurwin Techsat 1B 20 Dec 15:18:25 15:23:18 37° 262° (W) 15:28:13 435.225
HORYU 2 20 Dec 15:20:29 15:24:56 83° 257° (WSW) 15:29:27 437.375
BEESAT 20 Dec 15:24:14 15:27:46 21° 294° (WNW) 15:31:17 436.000
ITAMSAT 1 20 Dec 15:26:03 15:29:39 19° 266° (W) 15:33:16 435.822/435.867
ISS 20 Dec 15:29:03 15:31:31 19° 334° (NNW) 15:34:00 145.825
JAS-2 20 Dec 15:37:31 15:43:06 23° 64° (ENE) 15:48:21 435.910
AO-7 20 Dec 15:48:21 15:56:38 75° 70° (ENE) 16:04:58 29.400- 29.500
AIST 2 20 Dec 15:50:26 15:53:10 16° 314° (NW) 15:55:55 435.215
SRMSAT 20 Dec 16:10:55 16:13:26 13° 182° (S) 16:15:57 437.500
AUBIESAT-1 20 Dec 16:24:35 16:26:23 12° 303° (WNW) 16:28:07 437.475
STARS 20 Dec 16:27:00 16:30:47 28° 291° (WNW) 16:34:34 437.465
AIST 1 20 Dec 16:28:10 16:32:00 30° 90° (E) 16:35:50
KKS-1 20 Dec 16:30:59 16:34:01 18° 294° (WNW) 16:37:02 437.445
Cubesat XI-IV 20 Dec 16:42:31 16:44:24 12° 60° (ENE) 16:46:17 437.490
GONETS M04 20 Dec 16:49:18 16:57:41 48° 76° (ENE) 17:05:58
CUTE-I 20 Dec 17:13:14 17:17:20 23° 66° (ENE) 17:21:27 437.470
JAS-2 20 Dec 17:19:52 17:27:35 70° 258° (WSW) 17:34:41 435.910
RS-15 20 Dec 17:26:31 17:32:28 15° 3° (N) 17:38:30 29.354- 29.394
MOZHAYETS 4 20 Dec 17:38:05 17:42:44 77° 102° (ESE) 17:47:18
AO-7 20 Dec 17:44:06 17:50:04 22° 267° (W) 17:56:06 29.400- 29.500
AIST 1 20 Dec 18:06:28 18:09:40 20° 286° (WNW) 18:12:53
Cubesat XI-IV 20 Dec 18:18:23 18:23:43 85° 256° (WSW) 18:29:04 437.490
PRISM 20 Dec 18:24:39 18:28:21 31° 98° (E) 18:32:00 437.425
GONETS M04 20 Dec 18:46:35 18:54:10 35° 275° (W) 19:01:42
ISS 20 Dec 18:46:41 18:47:05 10° 14° (NNE) 18:47:28 145.825
CUTE-I 20 Dec 18:52:07 18:57:07 42° 261° (W) 19:02:09 437.470
CUBESAT XI-V 20 Dec 19:01:06 19:05:26 39° 98° (E) 19:09:44 437.345
STRAND 1 20 Dec 19:10:09 19:14:58 41° 99° (E) 19:19:44 437.568
JAS-2 20 Dec 19:12:09 19:13:23 10° 272° (W) 19:14:36 435.910
MOZHAYETS 4 20 Dec 19:18:32 19:19:16 10° 298° (WNW) 19:19:59
HO-68 20 Dec 19:22:14 19:27:30 23° 59° (ENE) 19:32:45 435.675
DANDE 20 Dec 19:31:35 19:36:15 17° 66° (ENE) 19:41:13 436.750
MaSat-1 20 Dec 19:35:02 19:36:55 19° 250° (WSW) 19:38:53 437.345
RS-15 20 Dec 19:40:33 19:50:09 31° 38° (NE) 20:00:03 29.354- 29.394
PRISM 20 Dec 20:00:41 20:03:39 19° 293° (WNW) 20:06:36 437.425
CANX-2 20 Dec 20:02:36 20:06:00 23° 69° (ENE) 20:09:24 2200.000
CUSAT 1 20 Dec 20:21:07 20:28:28 42° 75° (ENE) 20:36:24 437.405
ISS 20 Dec 20:21:22 20:24:26 36° 33° (NNE) 20:27:29 145.825
COMPASS 1 20 Dec 20:24:07 20:27:39 27° 70° (ENE) 20:31:13 437.405
SEEDS 20 Dec 20:29:19 20:33:12 36° 72° (ENE) 20:37:08 437.485
BRITE-PL 20 Dec 20:31:17 20:35:19 48° 74° (ENE) 20:39:18 437.365/2234.400
CUTE 1.7 + AOD 2 20 Dec 20:32:36 20:36:41 46° 73° (ENE) 20:40:48 437.475
CUBESAT XI-V 20 Dec 20:39:23 20:42:33 19° 293° (WNW) 20:45:43 437.345
DELFI C3 20 Dec 20:41:41 20:44:00 15° 66° (ENE) 20:46:20 145.870
DX 1 20 Dec 20:48:07 20:51:03 18° 66° (ENE) 20:54:00 434.975-435.025
STRAND 1 20 Dec 20:50:01 20:53:51 22° 294° (WNW) 20:57:40 437.568
SO-50 20 Dec 20:52:33 20:56:32 32° 113° (ESE) 21:00:38 436.795
GOMX 1 20 Dec 20:57:27 21:01:34 69° 76° (ENE) 21:05:43 467.674
HO-68 20 Dec 21:07:23 21:14:32 69° 256° (WSW) 21:21:42 435.675
Oscar 11 20 Dec 21:09:15 21:13:15 38° 72° (ENE) 21:17:17 145.826/435.025
DANDE 20 Dec 21:12:42 21:20:33 80° 81° (E) 21:29:17 436.750
UKube-1 20 Dec 21:17:53 21:21:52 37° 71° (ENE) 21:25:51 .
DOVE 4 20 Dec 21:22:25 21:26:33 84° 258° (WSW) 21:30:45 437.250
AAUSAT CUBESAT 2 20 Dec 21:23:31 21:27:42 69° 259° (W) 21:31:55 437.432
CUBEBUG 2 20 Dec 21:29:50 21:33:42 39° 72° (ENE) 21:37:40 437.445
BEESAT 2 20 Dec 21:30:03 21:31:34 12° 43° (NE) 21:33:05 435.950
CANX-2 20 Dec 21:38:11 21:41:48 27° 264° (W) 21:45:26 2200.000
ZACube-1 20 Dec 21:40:03 21:43:52 36° 72° (ENE) 21:47:47 437.345
VELOX 1 20 Dec 21:42:41 21:46:10 23° 68° (ENE) 21:49:39 145.980
CINEMA 3 20 Dec 21:47:00 21:51:08 76° 258° (WSW) 21:55:22 145.822/145.860
ESTCUBE 1 20 Dec 21:48:23 21:49:19 11° 62° (ENE) 21:50:16 437.505/2401.250
RS-15 20 Dec 21:52:34 22:03:56 85° 242° (WSW) 22:15:49 29.354- 29.394
ISS 20 Dec 21:58:19 22:00:51 21° 229° (SW) 22:03:21 145.825
COMPASS 1 20 Dec 21:59:58 22:03:19 23° 265° (W) 22:06:41 437.405
CUSAT 1 20 Dec 22:04:10 22:11:31 43° 269° (W) 22:19:22 437.405
FUNcube-1 20 Dec 22:06:23 22:10:31 75° 76° (ENE) 22:14:47 145.935
SEEDS 20 Dec 22:06:24 22:09:08 17° 267° (W) 22:11:55 437.485
UWE-3 20 Dec 22:07:26 22:11:36 87° 258° (WSW) 22:15:53 435.000/436.395/437.385
UNISAT 6 20 Dec 22:08:29 22:10:13 12° 91° (E) 22:11:57 437.425
CUTE 1.7 + AOD 2 20 Dec 22:10:49 22:12:51 13° 268° (W) 22:14:53 437.475
BRITE-PL 20 Dec 22:12:53 22:14:08 11° 268° (W) 22:15:23 437.365/2234.400
DELFI C3 20 Dec 22:15:01 22:18:54 41° 262° (W) 22:22:49 145.870
50 SAT 20 Dec 22:16:28 22:20:16 43° 73° (ENE) 22:24:06 437.505
PCSat 20 Dec 22:19:25 22:23:08 18° 48° (NE) 22:26:50 145.827
DX 1 20 Dec 22:22:59 22:27:00 37° 261° (W) 22:31:03 434.975-435.025
AISAT 20 Dec 22:24:52 22:29:16 71° 75° (ENE) 22:33:40 437.250
BEESAT 3 20 Dec 22:26:18 22:30:16 41° 55° (NE) 22:34:11 437.485
POLYITAN 1 20 Dec 22:29:47 22:31:11 11° 91° (E) 22:32:35 437.675
CUBEBUG 1 20 Dec 22:31:05 22:34:49 28° 70° (ENE) 22:38:33 437.445
NANOSAT C BR1 20 Dec 22:31:44 22:33:18 12° 92° (E) 22:34:51 145.865
SO-50 20 Dec 22:33:11 22:37:04 27° 311° (NW) 22:41:04 436.795
AIST 2 20 Dec 22:34:13 22:37:40 23° 49° (NE) 22:41:03 435.215
ANTELSAT 20 Dec 22:38:32 22:42:29 26° 96° (E) 22:46:26 437.575/2403.000
HUMSAT D 20 Dec 22:39:22 22:43:29 76° 258° (WSW) 22:47:40 437.325/437.525
QB50P1 20 Dec 22:45:01 22:47:53 17° 94° (E) 22:50:44 145.935-145.965
Oscar 11 20 Dec 22:46:46 22:49:33 17° 267° (W) 22:52:21 145.826/435.025
UKube-1 20 Dec 22:55:15 22:58:07 17° 266° (W) 23:01:01 .
DANDE 20 Dec 22:57:45 23:03:24 22° 275° (W) 23:09:26 436.750
BEESAT 2 20 Dec 23:06:11 23:10:23 81° 241° (WSW) 23:14:30 435.950
CUBEBUG 2 20 Dec 23:08:11 23:10:36 15° 268° (W) 23:13:03 437.445
POPSAT HIP 1 20 Dec 23:12:50 23:16:48 36° 98° (E) 23:20:45 437.405
TIGRISAT 20 Dec 23:13:24 23:18:05 61° 101° (E) 23:22:44 435.000
ZACube-1 20 Dec 23:17:47 23:20:23 16° 267° (W) 23:23:03 437.345
VELOX 1 20 Dec 23:18:44 23:22:35 29° 263° (W) 23:26:26 145.980
ESTCUBE 1 20 Dec 23:21:01 23:25:33 73° 258° (WSW) 23:30:06 437.505/2401.250
TISAT 1 20 Dec 23:34:21 23:38:08 34° 71° (ENE) 23:41:56 437.305
SPROUT 20 Dec 23:38:11 23:42:03 34° 71° (ENE) 23:45:56 437.525
BUGSAT 1 20 Dec 23:38:46 23:42:47 58° 101° (E) 23:46:48 437.445
DUCHIFAT 1 20 Dec 23:40:31 23:44:47 79° 102° (ESE) 23:49:03 145.980
UNISAT 6 20 Dec 23:42:42 23:47:22 64° 285° (WNW) 23:52:02 437.425
YUBILEINY 20 Dec 23:52:59 00:01:14 49° 89° (E) 00:09:27 435.215
50 SAT 20 Dec 23:53:57 23:55:42 13° 268° (W) 23:57:28 437.505
QB50P2 20 Dec 23:54:15 23:58:31 70° 285° (WNW) 00:02:46 145.880/145.840
PCSat 21 Dec 00:01:39 00:07:02 67° 246° (WSW) 00:12:23 145.827
POLYITAN 1 21 Dec 00:03:14 00:07:25 54° 286° (WNW) 00:11:37 437.675
NANOSAT C BR1 21 Dec 00:05:18 00:09:27 52° 286° (WNW) 00:13:35 145.865
BEESAT 3 21 Dec 00:05:31 00:08:05 16° 251° (WSW) 00:10:39 437.485
RS-15 21 Dec 00:07:38 00:14:42 19° 260° (W) 00:21:58 29.354- 29.394
CUBEBUG 1 21 Dec 00:07:41 00:11:09 23° 265° (W) 00:14:37 437.445
AIST 2 21 Dec 00:12:28 00:16:20 34° 246° (WSW) 00:20:09 435.215
ANTELSAT 21 Dec 00:15:08 00:19:12 29° 290° (WNW) 00:23:16 437.575/2403.000
QB50P1 21 Dec 00:19:58 00:23:51 35° 288° (WNW) 00:27:44 145.935-145.965
SWISSCUBE 21 Dec 00:26:35 00:30:17 23° 67° (ENE) 00:33:58 437.505
ITUPSAT 1 21 Dec 00:27:19 00:30:52 21° 66° (ENE) 00:34:25 437.325
M-CUBED/EXP-1 PRIME 21 Dec 00:27:33 00:30:19 15° 59° (ENE) 00:33:06 437.505
POPSAT HIP 1 21 Dec 00:49:33 00:52:24 18° 293° (WNW) 00:55:15 437.405
BEESAT 21 Dec 00:50:44 00:55:06 36° 70° (ENE) 00:59:29 436.000
TIGRISAT 21 Dec 00:51:59 00:54:17 14° 296° (WNW) 00:56:34 435.000
TISAT 1 21 Dec 01:11:12 01:14:02 18° 266° (W) 01:16:53 437.305
SPROUT 21 Dec 01:15:19 01:18:13 18° 266° (W) 01:21:09 437.525
BUGSAT 1 21 Dec 01:16:59 01:17:46 11° 296° (WNW) 01:18:33 437.445
O/OREOS (USA 219) 21 Dec 01:25:09 01:29:34 66° 292° (WNW) 01:34:01 437.305
AUBIESAT-1 21 Dec 01:34:07 01:38:52 62° 70° (ENE) 01:43:43 437.475
Oscar 19 21 Dec 01:43:18 01:48:07 37° 98° (E) 01:52:54 437.125/150
STARS 21 Dec 01:47:08 01:50:05 18° 66° (ENE) 01:53:03 437.465
KKS-1 21 Dec 01:50:27 01:54:16 29° 70° (ENE) 01:58:06 437.445
YUBILEINY 21 Dec 01:50:27 01:58:11 34° 287° (WNW) 02:05:56 435.215
Gurwin Techsat 1B 21 Dec 01:59:39 02:00:40 11° 89° (E) 02:01:42 435.225
M-CUBED/EXP-1 PRIME 21 Dec 01:59:57 02:04:43 66° 254° (WSW) 02:09:38 437.505
ITAMSAT 1 21 Dec 02:00:34 02:04:12 19° 94° (E) 02:07:48 435.822/435.867
SWISSCUBE 21 Dec 02:03:31 02:07:54 35° 262° (W) 02:12:18 437.505
ITUPSAT 1 21 Dec 02:03:59 02:08:28 39° 262° (W) 02:12:58 437.325
BEESAT 21 Dec 02:29:22 02:33:00 21° 265° (W) 02:36:39 436.000
VERMONT LUNAR 21 Dec 03:08:05 03:11:23 38° 153° (SSE) 03:14:41 437.305
AUBIESAT-1 21 Dec 03:11:39 03:14:08 14° 265° (W) 03:16:39 437.475
HORYU 2 21 Dec 03:14:36 03:18:07 22° 95° (E) 03:21:36 437.375
STARS 21 Dec 03:22:12 03:26:15 38° 262° (W) 03:30:21 437.465
Oscar 19 21 Dec 03:23:03 03:27:13 25° 293° (WNW) 03:31:22 437.125/150
PHONESAT 2.4 21 Dec 03:23:40 03:26:57 33° 152° (SSE) 03:30:16 2401.200-2431.200
KKS-1 21 Dec 03:27:24 03:30:53 23° 265° (W) 03:34:24 437.445
Gurwin Techsat 1B 21 Dec 03:35:53 03:41:13 82° 285° (WNW) 03:46:30 435.225
ITAMSAT 1 21 Dec 03:38:57 03:43:53 46° 289° (WNW) 03:48:48 435.822/435.867
AO-7 21 Dec 03:52:53 03:59:42 27° 95° (E) 04:06:26 29.400- 29.500
AIST 1 21 Dec 04:14:13 04:18:30 85° 82° (E) 04:22:45
JAS-2 21 Dec 04:34:44 04:37:29 14° 89° (E) 04:40:09 435.910
MOZHAYETS 4 21 Dec 04:38:12 04:42:45 58° 74° (ENE) 04:47:20
VERMONT LUNAR 21 Dec 04:46:06 04:49:37 67° 349° (N) 04:53:08 437.305
HORYU 2 21 Dec 04:50:47 04:54:47 32° 290° (WNW) 04:58:45 437.375
PHONESAT 2.4 21 Dec 05:01:53 05:05:31 73° 347° (NNW) 05:09:09 2401.200-2431.200
PRISM 21 Dec 05:14:22 05:17:28 20° 68° (ENE) 05:20:33 437.425
SO-50 21 Dec 05:25:37 05:29:27 23° 47° (NE) 05:33:18 436.795
AO-7 21 Dec 05:44:40 05:52:53 63° 292° (WNW) 06:01:04 29.400- 29.500
GONETS M04 21 Dec 05:47:33 05:56:07 58° 91° (E) 06:04:43
CUBESAT XI-V 21 Dec 06:03:02 06:07:12 33° 71° (ENE) 06:11:20 437.345
JAS-2 21 Dec 06:17:41 06:23:11 60° 287° (WNW) 06:28:17 435.910
MOZHAYETS 4 21 Dec 06:18:21 06:20:18 12° 269° (W) 06:22:16
STRAND 1 21 Dec 06:24:17 06:29:13 50° 72° (ENE) 06:34:08 437.568
VERMONT LUNAR 21 Dec 06:24:40 06:28:09 57° 6° (N) 06:31:38 437.305
Cubesat XI-IV 21 Dec 06:37:40 06:42:45 44° 99° (E) 06:47:48 437.490
PHONESAT 2.4 21 Dec 06:40:50 06:44:25 56° 4° (N) 06:48:00 2401.200-2431.200
PRISM 21 Dec 06:49:00 06:52:46 31° 262° (W) 06:56:33 437.425
SO-50 21 Dec 07:05:31 07:10:14 47° 244° (WSW) 07:14:55 436.795
CUTE-I 21 Dec 07:10:37 07:15:58 90° 105° (ESE) 07:21:17 437.470
AO-7 21 Dec 07:40:39 07:43:59 13° 312° (NW) 07:47:20 29.400- 29.500
CUBESAT XI-V 21 Dec 07:40:59 07:44:38 23° 265° (W) 07:48:18 437.345
GONETS M04 21 Dec 07:46:00 07:53:22 29° 290° (WNW) 08:00:48
VERMONT LUNAR 21 Dec 08:03:03 08:06:31 59° 203° (SSW) 08:10:00 437.305
STRAND 1 21 Dec 08:05:20 08:08:38 17° 267° (W) 08:11:58 437.568
Cubesat XI-IV 21 Dec 08:18:31 08:22:31 22° 295° (WNW) 08:26:30 437.490
PHONESAT 2.4 21 Dec 08:19:35 08:23:12 67° 201° (SSW) 08:26:48 2401.200-2431.200
BRITE-PL 21 Dec 08:37:19 08:40:53 20° 95° (E) 08:44:36 437.365/2234.400
HO-68 21 Dec 08:37:54 08:43:37 25° 95° (E) 08:49:18 435.675
MaSat-1 21 Dec 08:50:40 08:52:53 39° 112° (ESE) 08:55:01 437.345
CUTE-I 21 Dec 08:53:44 08:55:13 11° 300° (WNW) 08:56:43 437.470
GOMX 1 21 Dec 09:00:31 09:04:31 25° 96° (E) 09:08:43 467.674
AAUSAT CUBESAT 2 21 Dec 09:09:39 09:12:55 21° 95° (E) 09:16:09 437.432
DOVE 4 21 Dec 09:22:46 09:27:05 31° 97° (E) 09:31:35 437.250
CANX-2 21 Dec 09:24:47 09:29:04 58° 100° (E) 09:33:18 2200.000
CUBEBUG 2 21 Dec 09:25:12 09:26:17 11° 90° (E) 09:27:22 437.445
CUSAT 1 21 Dec 09:32:21 09:35:29 29° 88° (E) 09:39:28 437.405
ANTELSAT 21 Dec 09:37:02 09:40:04 19° 66° (ENE) 09:43:09 437.575/2403.000
QB50P1 21 Dec 09:38:22 09:39:40 11° 64° (ENE) 09:40:58 145.935-145.965
VERMONT LUNAR 21 Dec 09:42:46 09:44:22 13° 216° (SW) 09:45:59 437.305
CINEMA 3 21 Dec 09:43:29 09:47:43 30° 97° (E) 09:52:03 145.822/145.860
COMPASS 1 21 Dec 09:44:43 09:48:58 65° 101° (E) 09:53:09 437.405
SEEDS 21 Dec 09:51:09 09:55:28 87° 282° (WNW) 09:59:44 437.485
CUTE 1.7 + AOD 2 21 Dec 09:55:31 09:59:49 66° 284° (WNW) 10:04:04 437.475
DELFI C3 21 Dec 09:57:34 10:01:13 30° 97° (E) 10:04:49 145.870
FUNcube-1 21 Dec 09:57:43 10:00:47 18° 93° (E) 10:03:52 145.935
O/OREOS (USA 219) 21 Dec 09:58:41 10:01:36 17° 57° (ENE) 10:04:32 437.305
PHONESAT 2.4 21 Dec 09:59:15 10:01:28 15° 215° (SW) 10:03:41 2401.200-2431.200
UWE-3 21 Dec 09:59:42 10:03:22 23° 95° (E) 10:07:03 435.000/436.395/437.385
POPSAT HIP 1 21 Dec 10:04:55 10:08:12 23° 69° (ENE) 10:11:31 437.405
YUBILEINY 21 Dec 10:06:08 10:12:22 21° 67° (ENE) 10:18:33 435.215
RS-15 21 Dec 10:08:33 10:13:49 15° 98° (E) 10:19:02 29.354- 29.394
TIGRISAT 21 Dec 10:10:52 10:14:56 42° 72° (ENE) 10:19:08 435.000
DX 1 21 Dec 10:12:59 10:17:05 40° 99° (E) 10:21:10 434.975-435.025
BRITE-PL 21 Dec 10:15:00 10:19:26 41° 287° (WNW) 10:24:13 437.365/2234.400
AISAT 21 Dec 10:19:11 10:21:51 16° 93° (E) 10:24:31 437.250
HO-68 21 Dec 10:24:41 10:31:37 56° 291° (WNW) 10:38:32 435.675
HUMSAT D 21 Dec 10:26:29 10:29:44 20° 94° (E) 10:32:59 437.325/437.525
DANDE 21 Dec 10:27:02 10:30:24 70° 281° (W) 10:34:56 436.750
BUGSAT 1 21 Dec 10:27:45 10:31:24 32° 71° (ENE) 10:35:01 437.445
DUCHIFAT 1 21 Dec 10:31:43 10:35:43 45° 73° (ENE) 10:39:45 145.980
Oscar 11 21 Dec 10:34:08 10:38:31 81° 284° (WNW) 10:42:51 145.826/435.025
GOMX 1 21 Dec 10:38:19 10:42:36 33° 289° (WNW) 10:47:08 467.674
UNISAT 6 21 Dec 10:40:05 10:44:26 87° 257° (WSW) 10:48:56 437.425
UKube-1 21 Dec 10:43:07 10:47:28 89° 105° (ESE) 10:51:48 .
AAUSAT CUBESAT 2 21 Dec 10:44:55 10:48:33 28° 290° (WNW) 10:52:10 437.432
QB50P2 21 Dec 10:45:36 10:49:47 70° 76° (ENE) 10:54:00 145.880/145.840
POLYITAN 1 21 Dec 10:54:41 10:58:53 89° 77° (ENE) 11:03:08 437.675
NANOSAT C BR1 21 Dec 10:56:15 11:00:27 88° 258° (WSW) 11:04:41 145.865
CUBEBUG 2 21 Dec 10:58:42 11:03:21 69° 284° (WNW) 11:08:04 437.445
DOVE 4 21 Dec 11:00:42 11:04:42 27° 290° (WNW) 11:08:53 437.250
CANX-2 21 Dec 11:02:52 11:04:28 12° 296° (WNW) 11:06:03 2200.000
ZACube-1 21 Dec 11:06:13 11:10:47 79° 284° (WNW) 11:15:22 437.345
VELOX 1 21 Dec 11:10:39 11:15:02 59° 101° (E) 11:19:23 145.980
QB50P1 21 Dec 11:10:53 11:15:02 58° 259° (W) 11:19:12 145.935-145.965
ANTELSAT 21 Dec 11:12:31 11:16:33 37° 262° (W) 11:20:42 437.575/2403.000
ESTCUBE 1 21 Dec 11:16:16 11:20:03 26° 96° (E) 11:23:48 437.505/2401.250
CUSAT 1 21 Dec 11:16:19 11:18:50 16° 296° (WNW) 11:21:48 437.405
CINEMA 3 21 Dec 11:20:48 11:24:47 27° 290° (WNW) 11:28:52 145.822/145.860
COMPASS 1 21 Dec 11:23:19 11:24:06 10° 296° (WNW) 11:24:52 437.405
FUNcube-1 21 Dec 11:33:00 11:37:15 40° 288° (WNW) 11:41:32 145.935
DELFI C3 21 Dec 11:33:18 11:36:16 20° 292° (WNW) 11:39:13 145.870
50 SAT 21 Dec 11:33:20 11:37:30 82° 283° (WNW) 11:41:39 437.505
UWE-3 21 Dec 11:35:48 11:39:53 32° 289° (WNW) 11:44:02 435.000/436.395/437.385
O/OREOS (USA 219) 21 Dec 11:36:55 11:41:14 45° 254° (WSW) 11:45:33 437.305
POPSAT HIP 1 21 Dec 11:40:25 11:43:58 26° 264° (W) 11:47:33 437.405
TIGRISAT 21 Dec 11:49:19 11:51:54 15° 268° (W) 11:54:31 435.000
DX 1 21 Dec 11:50:13 11:52:59 17° 294° (WNW) 11:55:46 434.975-435.025
AISAT 21 Dec 11:54:28 11:58:39 43° 288° (WNW) 12:02:51 437.250
CUBEBUG 1 21 Dec 11:57:27 12:01:48 74° 102° (ESE) 12:06:07 437.445
YUBILEINY 21 Dec 12:01:22 12:10:03 77° 266° (W) 12:18:43 435.215
HUMSAT D 21 Dec 12:01:42 12:05:33 31° 289° (WNW) 12:09:23 437.325/437.525
BUGSAT 1 21 Dec 12:04:11 12:06:57 17° 266° (W) 12:09:41 437.445
DUCHIFAT 1 21 Dec 12:09:52 12:11:48 13° 268° (W) 12:13:45 145.980
RS-15 21 Dec 12:13:16 12:24:12 78° 116° (ESE) 12:35:07 29.354- 29.394
BEESAT 3 21 Dec 12:21:50 12:23:21 12° 108° (ESE) 12:24:54 437.485
VELOX 1 21 Dec 12:49:16 12:51:05 12° 296° (WNW) 12:52:55 145.980
ESTCUBE 1 21 Dec 12:53:06 12:56:50 26° 291° (WNW) 13:00:32 437.505/2401.250
BEESAT 21 Dec 12:56:13 12:56:36 10° 90° (E) 12:57:00 436.000
TISAT 1 21 Dec 12:56:20 13:00:35 83° 103° (ESE) 13:04:49 437.305
Oscar 19 21 Dec 12:58:25 13:03:16 45° 71° (ENE) 13:08:11 437.125/150
PCSat 21 Dec 12:59:56 13:03:47 20° 106° (ESE) 13:07:39 145.827
BEESAT 2 21 Dec 13:00:08 13:03:42 29° 113° (ESE) 13:07:19 435.950
ISS 21 Dec 13:01:12 13:04:04 27° 133° (SE) 13:06:56 145.825
SPROUT 21 Dec 13:02:16 13:06:35 90° 104° (ESE) 13:10:54 437.525
JUGNU 21 Dec 13:04:46 13:07:11 13° 176° (S) 13:09:36 437.505
ITAMSAT 1 21 Dec 13:16:50 13:21:01 25° 67° (ENE) 13:25:12 435.822/435.867
Gurwin Techsat 1B 21 Dec 13:17:58 13:21:08 16° 63° (ENE) 13:24:18 435.225
M-CUBED/EXP-1 PRIME 21 Dec 13:48:05 13:49:11 11° 94° (E) 13:50:17 437.505
